Hourly Data Report for July 14, 2021

VINELAND STATION RCS
ONTARIO
Current Station Operator: ECCC - MSC

43°11'00.000" N
79°24'00.000" W
79.20 m
6139148
71171
XVN

Download Data

Hourly Data (July 2021)
Hourly Data Report for July 14, 2021
TIME
LST
Temp Definition
°C
Dew Point Definition
°C
Rel Hum Definition
%
Precip. Amount Definition
mm

Wind Dir Definition
10's deg

Wind Spd Definition
km/h
Visibility Definition
km
Stn Press Definition
kPa
Hmdx Definition


Wind Chill Definition


Weather Definition


00:00 21.8 19.0 85 LegendMM 24 11   100.67 29   LegendNANA
01:00 21.9 19.9 88 LegendMM 22 19   100.67 29   LegendNANA
02:00 21.6 19.6 88 LegendMM 21 15   100.65 29   LegendNANA
03:00 21.6 19.5 87 LegendMM 22 18   100.66 29   LegendNANA
04:00 21.4 19.7 90 LegendMM 24 12   100.71 29   LegendNANA
05:00 21.2 19.7 91 LegendMM 24 10   100.75 29   LegendNANA
06:00 21.5 19.7 90 LegendMM 23 12   100.80 29   LegendNANA
07:00 22.4 19.9 86 LegendMM 25 10   100.84 30   LegendNANA
08:00 23.1 19.8 82 LegendMM 29 8   100.90 31   LegendNANA
09:00 22.4 19.6 84 LegendMM 30 7   100.92 30   LegendNANA
10:00 23.5 19.1 77 LegendMM 35 6   100.93 30   LegendNANA
11:00 24.0 19.4 76 LegendMM 4 5   100.95 31   LegendNANA
12:00 24.2 19.5 75 LegendMM 3 6   100.97 31   LegendNANA
13:00 25.5 20.5 74 LegendMM 3 5   100.93 33   LegendNANA
14:00 24.5 19.2 72 LegendMM 8 7   100.92 31   LegendNANA
15:00 26.9 20.5 68 LegendMM 21 12   100.87 35   LegendNANA
16:00 23.9 20.3 81 LegendMM 33 13   100.86 32   LegendNANA
17:00 24.8 21.7 83 LegendMM 20 14   100.83 34   LegendNANA
18:00 24.7 21.8 84 LegendMM 20 12   100.84 34   LegendNANA
19:00 24.9 21.8 83 LegendMM 18 7   100.86 34   LegendNANA
20:00 23.3 20.6 85 LegendMM 19 11   100.87 31   LegendNANA
21:00 22.4 20.2 88 LegendMM 20 12   100.89 30   LegendNANA
22:00 21.6 19.6 88 LegendMM 21 11   100.87 29   LegendNANA
23:00 21.3 18.8 86 LegendMM 21 12   100.87 28   LegendNANA

Notes on Data Quality.

Legend

  • E = Estimated
  • M = Missing
  • NA = Not Available*
  • [empty] = Indicates an unobserved value
Date modified: